Showing default

TRANSIT 5B-2, 704

Orbit data source: Space-Track

TRANSIT 5B-2, 704 is a payload satellite owned by USN BuWeps (US) in LEO that was launched on Thu, 05 Dec 1963 UTC via a THOR ABLESTAR launch vehicle from the Air Force Western Test Range (AFWTR). Payload-class satellites include a variety of spacecraft equipped with specific instruments for various scientific and technological missions. These include communications satellites like Starlink; space stations such as the ISS; scientific satellites like the Hubble; Earth observation satellites from companies like Planet Labs, Umbra, and HawkEye 360; GPS; miniature CubeSats for education and research; and military/defense satellites.

Loading next visibility...
Identifier
704, 1963-049B
Orbit
LEO
Country
Flag of USUS
Related business
Manufacturer
APL
Mission
Spacecraft
Bus & Motor
TRANSIT 5, Unknown motor
Mass
75 kg wet, 75 kg dry
Launch date (UTC)
1963-12-05 (62 years ago)
Launch vehicle
THOR ABLESTAR
Launch site
Air Force Western Test Range (AFWTR)
Object type
Payload
Rocket body
Debris
Shape & HBR
Unknown
Radar Cross Section
Large (>1 m²)

Expand to show TLE details & history
Last TLE update: 10 hours ago

TLE from 10 hours ago
0 TRANSIT 5B-2
1 00704U 63049B   26140.55809868  .00000059  00000-0  80410-4 0  9996
2 00704  89.9245  70.6445 0035825  21.8967 151.5775 13.47123129 67605
Epoch: 2026-05-20T13:23Z
TLE epoch observation values (Epoch: 2026-05-20T13:23:39.725Z)
Latitude
6.25378°
Longitude
171.50482°
Altitude
1,108.752 km
Speed
7.287 km/s
True Right ascension
16h 42m 32s
True Declination
6° 13' 06"
Sunlit
Object was in full shadow at epoch
Visualization orbit readout
Latitude
Unknown
Longitude
Unknown
Altitude
Unknown
Speed
Unknown
Apparent Right ascension
Unknown
Apparent Declination
Unknown
Sunlit
N/A
Visualization observer readout
Local Sidereal Time
08:03:15
Azimuth
Unknown
Elevation
Unknown
Doppler factor
Unknown
Orbital elements
Apogee altitude
1,106.634 km
Perigee altitude
1,053.197 km
Semi-major axis
7,458.053 km
Eccentricity
0.00358
Inclination
89.9245°
RAAN
70.6445°
Arg. of periapsis
21.8967°
True anomaly
151.77213°
Mean anomaly
151.5775°
Eccentric anomaly
151.67489°
Mean motion
3.36981 °/min
Orbital period
106.83 mins
BSTAR
0.00008041
Loading maneuver chart data...
Computing Atmospheric mass density...
Loading historical data...
Loading historical data...
Loading historical data...
Loading historical data...
Loading historical data...
Loading historical data...
Loading historical data...

Documentation

Showing up to 5 results
|